Home   Weather   Arviat   Past weeks

Flag for Canada Past Weather in Arviat, Nunavut, Canada — Yesterday and Last 2 Weeks

Now
28 °F

Sunny.


Feels Like: 18 °F
Forecast: N/A
Wind: 13 mph from Southwest

Location: Arviat Airport

Current Time: Apr 27, 2017 at 4:01:12 pm

Latest Report: Apr 27, 2017 at 3:00 pm


Visibility: 15 mi

Pressure: 30.04 "Hg

Humidity: 80%

Dew Point: 23 °F

Location of ArviatLocation

Past Weather in Arviat — Graph

°F

Arviat Temperature Yesterday

Maximum temperature yesterday: 34 °F (at 4:00 pm)
Minimum temperature yesterday: 7 °F (at 5:00 am)
Average temperature yesterday: 21 °F

High & Low Weather Summary for the Past Weeks

 TemperatureHumidityPressure
High34 °F (Apr 26, 4:00 pm)93% (Apr 20, 8:25 pm)30.57 "Hg (Apr 20, 8:25 pm)
Low-13 °F (Apr 15, 4:00 am)66% (Apr 18, 3:00 pm)29.77 "Hg (Apr 17, 12:40 pm)
Average2 °F78%30.29 "Hg
* Reported Apr 12 2:00 pm — Apr 27 2:00 pm, Arviat, Weather by CustomWeather, © 2017

Note: Actual official high and low records may vary slightly from our data, if they occured in-between our weather recording intervals... More about our weather records

Advertising

Arviat Weather History for the Previous 24 Hours

Scroll right to see more
 ConditionsComfort  
Time TempWeatherWind HumidityBarometerVisibility
2:00 pm
Thu, Apr 27
28 °FSunny.14 mph80%30.04 "Hg15 mi
1:00 pm27 °FSunny.13 mph74%30.05 "Hg15 mi
12:00 pm25 °FSunny.6 mph80%30.05 "Hg15 mi
11:00 am21 °FSunny.8 mph80%30.05 "Hg15 mi
10:00 am19 °FSunny.8 mph79%30.06 "Hg15 mi
9:00 am18 °FSunny.10 mph79%30.06 "Hg15 mi
8:00 am16 °FSunny.9 mph79%30.05 "Hg15 mi
7:00 am16 °FPassing clouds.6 mph79%30.05 "Hg15 mi
6:00 am14 °FSunny.6 mph85%30.03 "Hg9 mi
5:00 am16 °FClear.8 mph86%30.02 "Hg9 mi
4:00 am19 °FPassing clouds.10 mph79%30.01 "Hg9 mi
3:00 am19 °FClear.13 mph79%30.00 "Hg9 mi
2:00 am21 °FPassing clouds.13 mph80%30.00 "Hg9 mi
1:00 am23 °FOvercast.14 mph80%30.01 "Hg9 mi
12:00 am25 °FOvercast.16 mph80%30.00 "Hg9 mi
11:00 pm
Wed, Apr 26
25 °FOvercast.16 mph80%30.00 "Hg9 mi
10:00 pm25 °FPassing clouds.15 mph80%30.00 "Hg9 mi
9:00 pm27 °FSunny.14 mph86%30.00 "Hg9 mi
8:00 pm30 °FSunny.16 mph80%29.98 "Hg9 mi
7:00 pm34 °FOvercast.17 mph75%29.98 "Hg9 mi
6:00 pm34 °FOvercast.18 mph75%29.97 "Hg9 mi
5:00 pm32 °FBroken clouds.18 mph80%29.97 "Hg15 mi
4:00 pm34 °FPartly sunny.14 mph75%29.98 "Hg15 mi
Weather by CustomWeather, © 2017

See weather overviewHow to use our weather pages